カタログに戻る

STARLINK-34063

運用中通信VLEO
NORAD 64185·PAYLOAD·🇺🇸 United States

打ち上げ May 28, 2025 から Cape Canaveral Space Force Station

Loading…

次のパス (今後24時間)

TLE

最新Source: CelesTrak SupGP

元期: Sep 15, 2026, 02:33 UTC

1 64185C 25113R   26258.10673611  .00015368  00000+0  49378-3 0  2588
2 64185  53.1593 289.8193 0001287  86.9681  23.9458 15.31721142    17

AllMySatでSTARLINK-34063をリアルタイム追跡

Download on the App Store